[[{"header":{"parameterUnit":"m.s-1","parameterCategory":1,"la1":30.2991,"la2":30.254,"lo1":-89.0895,"lo2":-89.0444,"dy":0.0017,"dx":0.0017,"nx":28,"ny":28,"refTime":"2024-10-16T21:00:00:Z","depth":0,"parameterNumber":2,"parameterNumberName":"U-component_of_WINDS"},"data":[0,0,0,0,0,0,0,0,0,0,0,0,0,0,0,0,0,0,0,0,0,0,0,0,0,0,0,0,0,0,0,0,0,0,0,0,0,0,0,0,0,0,0,0,0,0,0,0,0,0,0,0,0,0,0,0,0,0,-2.4532,-2.4533,0,-2.4584,-2.4585,-2.4586,-2.4545,-2.4544,-2.4542,-2.454,-2.4591,-2.4594,-2.4597,0,0,0,0,0,0,0,0,0,0,0,0,0,-2.4396,-2.4399,-2.4532,-2.4533,-2.4534,-2.4584,-2.4585,-2.4586,-2.4546,-2.4544,-2.4541,-2.454,-2.459,-2.4594,-2.4597,0,0,0,0,0,0,0,0,0,0,0,0,0,-2.4452,-2.4399,-2.4532,-2.452,-2.4519,-2.4584,-2.4585,-2.4586,-2.4546,-2.4544,-2.4541,-2.4539,-2.4589,-2.4594,-2.4598,-2.4677,0,0,-2.4612,-2.4614,0,0,0,0,0,0,0,0,-2.4449,-2.4457,-2.4521,-2.4521,-2.452,-2.4556,-2.4556,-2.4616,-2.4547,-2.4536,-2.454,-2.4537,-2.4582,-2.4586,-2.4602,-2.468,-2.4682,-2.4612,-2.4615,-2.4617,-2.4618,0,0,0,0,0,0,0,-2.4445,-2.4455,-2.4553,-2.4522,-2.4522,-2.4511,-2.4516,-2.4567,-2.4572,-2.4537,-2.4534,-2.4541,-2.4581,-2.4598,-2.4603,-2.4683,-2.4612,-2.4616,-2.4619,-2.462,-2.4827,-2.483,0,0,0,0,0,0,-2.4443,-2.4452,-2.4551,-2.4554,-2.4478,-2.4515,-2.4521,-2.4547,-2.4572,-2.4573,-2.4543,-2.4539,-2.4591,-2.4598,-2.4604,-2.4698,-2.4617,-2.4621,-2.4623,-2.4824,-2.4827,-2.4831,0,0,0,0,0,0,-2.444,-2.4452,-2.4549,-2.4502,-2.4514,-2.4521,-2.455,-2.4549,-2.4566,-2.4577,-2.4577,-2.4559,-2.4589,-2.4598,-2.4659,-2.4699,-2.4623,-2.4627,-2.4821,-2.4825,-2.4829,-2.4886,0,0,0,0,0,0,-2.4436,-2.4451,-2.4482,-2.4503,-2.4517,-2.4604,-2.4552,-2.4552,-2.4574,-2.4569,-2.4592,-2.4593,-2.4588,-2.4653,-2.4664,-2.4704,-2.463,-2.4817,-2.4823,-2.4828,-2.4881,-2.4892,-2.4901,0,0,0,0,0,-2.4432,-2.4496,-2.4484,-2.4496,-2.4555,-2.4607,-2.4614,-2.4607,-2.4578,-2.4608,-2.4615,-2.4593,-2.4693,-2.466,-2.4671,-2.4713,-2.4815,-2.4821,-2.4827,-2.4876,-2.489,-2.4901,0,0,0,0,0,0,-2.4478,-2.4499,-2.4485,-2.4559,-2.4581,-2.46,-2.4638,-2.4622,-2.4653,-2.4647,-2.4637,-2.4642,-2.4706,-2.4716,-2.4678,-2.4791,-2.4749,-2.4758,-2.4782,-2.4795,-2.4805,-2.4801,-2.4634,0,0,0,0,0,-2.4498,-2.4538,-2.4553,-2.4616,-2.4629,-2.4632,-2.4654,-2.4647,-2.4669,-2.4678,-2.4689,-2.4712,-2.4748,-2.4772,-2.4806,-2.4882,-2.4886,-2.4917,-2.4927,-2.4936,-2.4943,-2.4983,-2.4997,-2.4851,-2.4851,-2.4851,0,0,-2.4537,-2.4553,-2.4579,-2.4626,-2.4643,-2.4684,-2.464,-2.4686,-2.4716,-2.4685,-2.4743,-2.4752,-2.4776,-2.4845,-2.4876,-2.4855,-2.4984,-2.4944,-2.495,-2.4953,-2.4991,-2.5005,-2.5017,-2.4856,-2.4855,-2.4854,0,0,-2.463,-2.4647,-2.4701,-2.4718,-2.4744,-2.4746,-2.4759,-2.478,-2.4785,-2.4843,-2.4821,-2.4856,-2.492,-2.4937,-2.4955,-2.5054,-2.5035,-2.5066,-2.5119,-2.5158,-2.5169,-2.5179,-2.5214,-2.5226,-2.5073,-2.5074,-2.5074,0,-2.4675,-2.4738,-2.473,-2.4778,-2.4799,-2.4773,-2.4827,-2.4845,-2.488,-2.4895,-2.4871,-2.495,-2.4964,-2.5036,-2.5061,-2.5076,-2.509,-2.5062,-2.5168,-2.5179,-2.5188,-2.522,-2.5234,-2.5077,-2.5077,-2.5076,-2.5076,0,-2.4792,-2.4835,-2.4875,-2.4911,-2.4937,-2.4987,-2.4987,-2.5013,-2.5004,-2.5008,-2.5067,-2.5084,-2.512,-2.5137,-2.5129,-2.5208,-2.5194,-2.517,-2.5127,-2.5205,-2.5236,-2.5248,-2.5082,-2.5081,-2.508,-2.5079,0,0,-2.4915,-2.4946,-2.4961,-2.4976,-2.5003,-2.5036,-2.5085,-2.5122,-2.5144,-2.5169,-2.5209,-2.5264,-2.5241,-2.5261,-2.5254,-2.5289,-2.5365,-2.526,-2.526,-2.5278,-2.5452,-2.547,-2.5484,-2.5353,-2.5355,-2.5357,-2.545,0,-2.5008,-2.5094,-2.5089,-2.5169,-2.5209,-2.5185,-2.5228,-2.5248,-2.5253,-2.5287,-2.5291,-2.533,-2.5298,-2.5309,-2.5342,-2.5349,-2.54,-2.5342,-2.5389,-2.539,-2.5382,-2.55,-2.5519,-2.5606,-2.5462,-2.5464,-2.5465,0,-2.5129,-2.5159,-2.5243,-2.5263,-2.528,-2.5318,-2.5351,-2.5383,-2.5406,-2.5407,-2.5429,-2.5416,-2.5465,-2.5422,-2.5488,-2.5449,-2.5468,-2.5474,-2.5477,-2.548,-2.5432,-2.5506,-2.5634,-2.5647,-2.5484,-2.5483,-2.5481,0,-2.5209,-2.527,-2.5329,-2.5343,-2.5368,-2.5396,-2.5407,-2.5427,-2.5449,-2.5478,-2.5492,-2.5525,-2.5543,-2.5569,-2.5566,-2.5535,-2.5633,-2.559,-2.5634,-2.5634,-2.5655,-2.5653,-2.5786,-2.5669,-2.5668,-2.5668,-2.5668,0,-2.5313,-2.5366,-2.5365,-2.5401,-2.5459,-2.5452,-2.5509,-2.5517,-2.5535,-2.5571,-2.5553,-2.5587,-2.5581,-2.5615,-2.5612,-2.5667,-2.5675,-2.5677,-2.5675,-2.5678,-2.5678,-2.5689,-2.5683,-2.5672,-2.5671,-2.567,-2.567,0,-2.5412,-2.5414,-2.5476,-2.5495,-2.5501,-2.5543,-2.5558,-2.5592,-2.5595,-2.5641,-2.5651,-2.5656,-2.5695,-2.5695,-2.5739,-2.5737,-2.5804,-2.5796,-2.5796,-2.5794,-2.5838,-2.5834,-2.5983,-2.6002,-2.5873,-2.5874,-2.5875,0,-2.5478,-2.5518,-2.5541,-2.5565,-2.5578,-2.5616,-2.5638,-2.5633,-2.5657,-2.5685,-2.5715,-2.5753,-2.5782,-2.5845,-2.5853,-2.5886,-2.5878,-2.5928,-2.5883,-2.5884,-2.5878,-2.5875,-2.5879,-2.5937,-2.5938,-2.5939,-2.594,0,-2.5595,-2.5594,-2.5627,-2.5661,-2.5689,-2.5715,-2.5739,-2.5759,-2.5756,-2.5784,-2.5824,-2.5847,-2.5892,-2.5929,-2.5961,-2.5972,-2.5956,-2.5955,-2.5966,-2.5969,-2.5967,-2.5968,-2.582,-2.5951,-2.595,-2.5949,-2.5948,-2.5948,-2.5679,-2.5713,-2.5734,-2.5772,-2.579,-2.5813,-2.5845,-2.5852,-2.5885,-2.5922,-2.5917,-2.5961,-2.5982,-2.6023,-2.6037,-2.6072,-2.6054,-2.6071,-2.6075,-2.608,-2.6084,-2.5963,-2.6077,-2.6077,-2.6077,-2.6077,-2.6076,0,-2.5794,-2.5806,-2.5841,-2.5876,-2.5905,-2.5888,-2.5913,-2.5939,-2.5978,-2.5999,-2.6029,-2.6074,-2.611,-2.612,-2.6154,-2.6179,-2.6173,-2.6189,-2.6186,-2.6189,-2.6098,-2.6084,-2.6193,-2.6193,-2.6193,-2.6193,-2.6193,-2.6193,-2.5857,-2.5913,-2.5914,-2.5979,-2.5991,-2.6035,-2.6051,-2.6071,-2.6088,-2.614,-2.6169,-2.6176,-2.6192,-2.6227,-2.6259,-2.6261,-2.6274,-2.6293,-2.6292,-2.6207,-2.6195,-2.6184,-2.6171,-2.6296,-2.6296,-2.6379,-2.638,-2.6381]},{"header":{"parameterUnit":"m.s-1","parameterCategory":1,"la1":30.2991,"la2":30.254,"lo1":-89.0895,"lo2":-89.0444,"dy":0.0017,"dx":0.0017,"nx":28,"ny":28,"refTime":"2024-10-16T21:00:00:Z","depth":0,"parameterNumber":3,"parameterNumberName":"V-component_of_WINDS"},"data":[0,0,0,0,0,0,0,0,0,0,0,0,0,0,0,0,0,0,0,0,0,0,0,0,0,0,0,0,0,0,0,0,0,0,0,0,0,0,0,0,0,0,0,0,0,0,0,0,0,0,0,0,0,0,0,0,0,0,-2.7287,-2.7288,0,-2.7363,-2.7364,-2.7364,-2.7371,-2.737,-2.737,-2.7369,-2.7441,-2.7444,-2.7446,0,0,0,0,0,0,0,0,0,0,0,0,0,-2.7144,-2.7146,-2.7287,-2.7288,-2.7289,-2.7363,-2.7364,-2.7365,-2.7371,-2.737,-2.7369,-2.7368,-2.744,-2.7443,-2.7447,0,0,0,0,0,0,0,0,0,0,0,0,0,-2.7211,-2.7147,-2.7287,-2.7301,-2.7303,-2.7362,-2.7364,-2.7365,-2.7372,-2.737,-2.7369,-2.7368,-2.7439,-2.7443,-2.7447,-2.7495,0,0,-2.7459,-2.7461,0,0,0,0,0,0,0,0,-2.7207,-2.7216,-2.7298,-2.7301,-2.7303,-2.7356,-2.7339,-2.7408,-2.7372,-2.7346,-2.7369,-2.7367,-2.7414,-2.742,-2.7436,-2.7499,-2.7502,-2.746,-2.7462,-2.7464,-2.7465,0,0,0,0,0,0,0,-2.7202,-2.7213,-2.7317,-2.7299,-2.7302,-2.7302,-2.7311,-2.7353,-2.7385,-2.7348,-2.7348,-2.7358,-2.7415,-2.7432,-2.7438,-2.7503,-2.746,-2.7463,-2.7466,-2.7467,-2.7607,-2.7608,0,0,0,0,0,0,-2.7196,-2.7209,-2.7314,-2.7319,-2.7251,-2.7306,-2.7315,-2.734,-2.7385,-2.739,-2.7358,-2.7358,-2.7426,-2.7433,-2.7441,-2.7499,-2.7464,-2.7467,-2.747,-2.7606,-2.7607,-2.7609,0,0,0,0,0,0,-2.7193,-2.7205,-2.7311,-2.7264,-2.7278,-2.731,-2.7338,-2.7342,-2.736,-2.7393,-2.7398,-2.7371,-2.7425,-2.7435,-2.7482,-2.7501,-2.7469,-2.7473,-2.7604,-2.7606,-2.7608,-2.7616,0,0,0,0,0,0,-2.7189,-2.7204,-2.7224,-2.7265,-2.728,-2.7353,-2.7339,-2.7345,-2.7368,-2.7367,-2.7406,-2.7411,-2.7425,-2.7476,-2.7486,-2.7506,-2.7476,-2.7602,-2.7605,-2.7607,-2.7614,-2.7618,-2.7622,0,0,0,0,0,-2.7183,-2.7222,-2.7225,-2.7238,-2.7306,-2.7354,-2.7363,-2.738,-2.7369,-2.7389,-2.7409,-2.741,-2.7498,-2.748,-2.7492,-2.7514,-2.7601,-2.7604,-2.7607,-2.7613,-2.7617,-2.7621,0,0,0,0,0,0,-2.7181,-2.7228,-2.7231,-2.7285,-2.7316,-2.7355,-2.738,-2.7384,-2.7417,-2.7415,-2.7433,-2.7442,-2.7487,-2.7505,-2.7485,-2.7562,-2.7548,-2.7554,-2.7548,-2.7553,-2.7557,-2.7551,-2.7479,0,0,0,0,0,-2.7188,-2.7224,-2.7262,-2.7306,-2.7321,-2.7348,-2.7369,-2.738,-2.7412,-2.7424,-2.7448,-2.7478,-2.7512,-2.7534,-2.7567,-2.7617,-2.7625,-2.7638,-2.7642,-2.7644,-2.7648,-2.7675,-2.7681,-2.7618,-2.7618,-2.7618,0,0,-2.72,-2.723,-2.7252,-2.7306,-2.7331,-2.7367,-2.7359,-2.7397,-2.7423,-2.7429,-2.7475,-2.7494,-2.7528,-2.7576,-2.7598,-2.7592,-2.7667,-2.7648,-2.765,-2.7653,-2.7678,-2.7684,-2.7689,-2.7621,-2.762,-2.762,0,0,-2.724,-2.7268,-2.7306,-2.7332,-2.737,-2.7388,-2.7397,-2.7436,-2.7449,-2.7496,-2.7501,-2.7531,-2.759,-2.7614,-2.7633,-2.7683,-2.7684,-2.7693,-2.7711,-2.7737,-2.7742,-2.7746,-2.7762,-2.7768,-2.7697,-2.7697,-2.7697,0,-2.725,-2.7306,-2.7325,-2.7364,-2.7387,-2.7396,-2.7434,-2.7457,-2.7504,-2.7518,-2.7512,-2.7585,-2.7609,-2.7662,-2.7674,-2.769,-2.77,-2.7688,-2.774,-2.7744,-2.7749,-2.7764,-2.777,-2.7698,-2.7698,-2.7697,-2.7697,0,-2.7315,-2.7354,-2.738,-2.7427,-2.7453,-2.7491,-2.7514,-2.7538,-2.7546,-2.7564,-2.761,-2.7639,-2.7677,-2.7691,-2.7699,-2.7745,-2.774,-2.7736,-2.7722,-2.7755,-2.777,-2.7776,-2.7699,-2.7698,-2.7698,-2.7698,0,0,-2.7356,-2.7413,-2.7422,-2.7443,-2.7486,-2.7515,-2.7552,-2.7592,-2.7611,-2.7643,-2.7674,-2.7723,-2.772,-2.7742,-2.7753,-2.7775,-2.7811,-2.7769,-2.777,-2.7774,-2.7861,-2.7863,-2.787,-2.7812,-2.7813,-2.7814,-2.7858,0,-2.74,-2.7469,-2.7488,-2.7546,-2.758,-2.7589,-2.7622,-2.765,-2.7668,-2.7698,-2.7717,-2.7751,-2.7745,-2.7759,-2.7782,-2.7801,-2.7828,-2.7799,-2.7839,-2.784,-2.7829,-2.7878,-2.788,-2.7919,-2.7864,-2.7865,-2.7866,0,-2.7461,-2.7495,-2.7557,-2.7595,-2.761,-2.7639,-2.7676,-2.7706,-2.7738,-2.7749,-2.7774,-2.7782,-2.782,-2.7806,-2.7857,-2.7836,-2.7854,-2.7866,-2.7868,-2.7871,-2.7854,-2.788,-2.7933,-2.7938,-2.7875,-2.7875,-2.7874,0,-2.7482,-2.7544,-2.7589,-2.7606,-2.7652,-2.7672,-2.7691,-2.7723,-2.7745,-2.7777,-2.7791,-2.7826,-2.7845,-2.7872,-2.7889,-2.7877,-2.7938,-2.7925,-2.7946,-2.7946,-2.7957,-2.7956,-2.8012,-2.7971,-2.7971,-2.7971,-2.7971,0,-2.7529,-2.7566,-2.7599,-2.7626,-2.7667,-2.7687,-2.7727,-2.7746,-2.7774,-2.7804,-2.7814,-2.7841,-2.7863,-2.7892,-2.7906,-2.7945,-2.7954,-2.7962,-2.7965,-2.7961,-2.796,-2.7971,-2.7969,-2.7973,-2.7972,-2.7972,-2.7972,0,-2.756,-2.7583,-2.7632,-2.7672,-2.7682,-2.7711,-2.7744,-2.7769,-2.7787,-2.7825,-2.7835,-2.7862,-2.7898,-2.7918,-2.7962,-2.7971,-2.8015,-2.8017,-2.8004,-2.8005,-2.8025,-2.8022,-2.8089,-2.8098,-2.8053,-2.8053,-2.8053,0,-2.7587,-2.7616,-2.7659,-2.768,-2.77,-2.7735,-2.7758,-2.7778,-2.7801,-2.784,-2.7861,-2.7897,-2.7927,-2.7984,-2.8006,-2.804,-2.8042,-2.8063,-2.8047,-2.8041,-2.8041,-2.8038,-2.804,-2.8065,-2.8066,-2.8066,-2.8066,0,-2.7633,-2.7643,-2.7677,-2.7715,-2.7742,-2.7772,-2.7802,-2.7819,-2.7844,-2.7869,-2.7906,-2.793,-2.7976,-2.8011,-2.8047,-2.8065,-2.8069,-2.8072,-2.8078,-2.8073,-2.8064,-2.8068,-2.801,-2.807,-2.8069,-2.8069,-2.8069,-2.8069,-2.7662,-2.7687,-2.7721,-2.7758,-2.7783,-2.7811,-2.7837,-2.7858,-2.789,-2.793,-2.794,-2.7979,-2.8009,-2.8057,-2.8077,-2.8106,-2.8102,-2.8112,-2.8114,-2.8115,-2.8115,-2.8061,-2.8113,-2.8113,-2.8113,-2.8112,-2.8112,0,-2.7707,-2.7729,-2.7763,-2.7805,-2.7833,-2.7837,-2.787,-2.7893,-2.7928,-2.7956,-2.7986,-2.8028,-2.8063,-2.8088,-2.8123,-2.8142,-2.8144,-2.815,-2.8148,-2.8152,-2.8118,-2.8108,-2.8147,-2.8147,-2.8147,-2.8147,-2.8147,-2.8147,-2.7733,-2.7776,-2.7791,-2.7845,-2.7867,-2.7907,-2.7925,-2.795,-2.7973,-2.802,-2.8049,-2.8066,-2.8093,-2.813,-2.8161,-2.8168,-2.8179,-2.8184,-2.8191,-2.8158,-2.8154,-2.8151,-2.8142,-2.8187,-2.8187,-2.8222,-2.8222,-2.8222]}]]